CZ-4B DEB

Satellite information

Favourite Embed

Satellite Type and Status

DEBRISIN ORBIT

Key statistics

Satellite CZ-4B DEB at a glance.

Uptime

6190

Days in orbit

Revolutions

≈ 13.8

Per day

Orbit

SSO

Sun Synchronous Orbit

Inclination

98.7

Latest

Satellite identification and parameters

Extended collection of information and parameters for CZ-4B DEB.

Object identification

Identified? True

Debris? True

Object name: CZ-4B DEB

International designator: 2008-026D

Object number (NORAD): 37572

Object ID (CCSDS): 37572

Country: PEOPLES REPUBLIC OF CHINA (PRC)

Current information (Y/N): Y

RCS size: SMALL

Orbital parameters

Period: 104.536 minutes

Inclination: 98.7176 deg

SMA: 7350.862 km

Apoapsis: 1148.706 km

Periapsis: 796.748 km

RAAN: 154.9166 deg

Eccentricy: 0.0239399

Argument of periapsis: 224.3175 deg

Mean anomaly: 290.1126 deg

Mean motion: 13.77511937 rev/day

Mean motion (dot): 0.00000502 rev/day2

B* drag term: 0.00044047 1/REarth

Two-line elements (TLE)

Creation date: May 8, 2025, 3:01 a.m.

Reference frame: TEME

Reference center: EARTH

Epoch: May 7, 2025, 1:18 p.m. UTC

TLE line 0: 0 CZ-4B DEB

TLE line 1: 1 37572U 08026D 25127.55454848 .00000502 00000-0 44047-3 0 9999

TLE line 2: 2 37572 98.7176 154.9166 0239399 224.3175 290.1126 13.77511937839550

Live tracking on map

Real-time ground track for satellite CZ-4B DEB.

In-orbit conjunctions

A list of the most updated potential collisions computed for object CZ-4B DEB.

Target Orbit TCA Probability of collision Miss distance Type
YAOGAN 30 DEB SSO 2025-05-03 10:01:06 0.0001140432 93.0 (m) DEBRIS
THOR ABLESTAR DEB LEO 2024-09-10 18:42:36 0.0001720293 238.0 (m) DEBRIS

Associated space launch

Chinese 2nd generation polar orbiting meteorological satellite

CZ-4B DEB was lifted into orbit during the mission ‘Long March 4C | Feng Yun 3A’, on board a Long March 4C space rocket.

The launch took place on May 27, 2008, 3:02 a.m. from Launch Complex 7.

For more information about the launch, click the button.

Launch to space Long March 4C | Feng Yun 3A
Long March 4C | Feng Yun 3A

Agency: N/A

Status: Launch Successful

Launch date: May 27, 2008, 3:02 a.m. UTC

Rocket: Long March 4C

Launch pad: Launch Complex 7

Location: Taiyuan Satellite Launch Center, People's Republic of China

...

Latest news about this satellite

There are no fresh news available about this satellite. Check back as we update our databases every day.


Newsletter sign-up

Weekly statistics, charts and insights to help you stay on top of the space industry.